Regional Weather Roundup
Issued by NWS

Home | Current Version | Previous Version | Text Only | Print | Product List | Glossary On
Versions: 1 2 3 4 5 6 7 8 9 10 11 12 13 14 15 16 17 18 19 20 21 22 23 24 25 26 27 28 29 30 31 32 33 34 35 36 37 38 39 40 41 42 43 44 45 46 47 48 49 50
000
ASUS44 KLIX 270111
RWRLA
LOUISIANA WEATHER ROUNDUP
NATIONAL WEATHER SERVICE NEW ORLEANS LA
800 PM CDT THU MAR 26 2015

NOTE: "FAIR" INDICATES FEW OR NO CLOUDS BELOW 12,000 FEET WITH NO
      SIGNIFICANT WEATHER AND/OR OBSTRUCTIONS TO VISIBILITY.
      SKY/WX - SKY CONDITION AND SIGNIFICANT WEATHER.
      TMP - AIR TEMPERATURE.    DP   - DEWPOINT TEMPERATURE.
      RH  - RELATIVE HUMIDITY.  PRES - PRESSURE.
      HX  - HEAT INDEX.         WCI  - WIND CHILL INDEX.

*  THESE STATIONS ARE NOT NWS OR FAA STATIONS AND ARE NOT UNDER
   NWS QUALITY CONTROL.

LAZ040-048-061>063-065-066-069-270200-
SOUTHEAST LOUISIANA

CITY           SKY/WX    TMP DP  RH WIND       PRES   REMARKS
N.O. AUDUBON     N/A     64  64 100 MISG        N/A
N.O. INTL ARPT CLOUDY    63  60  90 NW3       29.88R
N.O. LAKEFRONT CLOUDY    67  61  81 NW7       29.88R
SLIDELL        CLOUDY    63  62  97 CALM      29.87R
BATON ROUGE    LGT RAIN  65  62  90 NW10      29.89R
BOOTHVILLE     CLOUDY    65  61  87 S6        29.86S
BELLE CHASSE   CLOUDY    64  62  93 S5        29.87R
BOGALUSA*        N/A     66  61  84 SW5       29.87S
GALLIANO*      CLOUDY    56  55  97 NW5       29.88S
NEW ROADS*     CLOUDY    59  56  91 NW17G26   29.93R
GONZALES*      CLOUDY    65  65 100 CALM      29.88R
HAMMOND*       CLOUDY    66  61  82 CALM      29.89S
HOUMA*         MOCLDY    64  63  97 CALM      29.87F
PORT FOURCHON* PTCLDY    68  64  88 SW5       29.90R

$$

LAZ041-044-053-054-270200-
SOUTHWEST LOUISIANA

CITY           SKY/WX    TMP DP  RH WIND       PRES   REMARKS
LAKE CHARLES   CLOUDY    60  52  74 N18G24    29.97R
LAFAYETTE      CLOUDY    63  58  83 N16G24    29.93R
PATTERSON      CLOUDY    64  63  94 S5        29.90R
SALT POINT       N/A     63  62  97 VRB3      29.87R
NEW IBERIA     CLOUDY    64  59  83 NW16      29.92R
CHENAULT AIRPK CLOUDY    59  52  77 NW15G22   29.98R

$$

LAZ027-028-270200-
CENTRAL LOUISIANA

CITY           SKY/WX    TMP DP  RH WIND       PRES   REMARKS
FORT POLK      CLOUDY    56  52  88 N9        30.00R FOG
ALEXANDRIA INT CLOUDY    55  51  86 NW10      29.98R
ALEXANDRIA     CLOUDY    54  49  83 N6        29.99R

$$

LAZ001-002-270200-
NORTHWEST LOUISIANA

CITY           SKY/WX    TMP DP  RH WIND       PRES   REMARKS
SHREVEPORT     PTCLDY    56  45  66 NE5       30.04R
BARKSDALE AFB  CLEAR     53  45  74 N3        30.05R
DTN SHREVEPORT CLEAR     56  43  61 N5        30.05R

$$

LAZ014-016-270200-
NORTHEAST LOUISIANA

CITY           SKY/WX    TMP DP  RH WIND       PRES   REMARKS
MONROE         CLOUDY    52  48  86 N10       30.03R
TALLULAH       LGT RAIN  53  46  77 N15G24    29.98R

$$




USA.gov is the U.S. government's official web portal to all federal, state and local government web resources and services.